Snowfall_Accumulation
0.2 0.0 0.0 0.0 0.0 0.0 0.0 0.0 2.2 0.0 0.0 0.0 0.0 0.0 0.0 0.0 0.0 0.0 0.0 0.0 0.0 0.0 0.0 0.0 0.0 0.0 0.0 0.0 0.0 0.0 0.0 0.0 0.1 0.0 0.0 0.0 0.0 0.0 0.0 0.0 0.0 0.0 0.0 0.0
3.2 0.2 0.1 0.2 0.0 0.0 0.0 0.0 0.0 0.0 0.0 0.0 0.0 0.0 0.0 0.0 0.0 0.0 0.0 0.0 0.0 0.0 0.0 0.0 0.0 0.0 0.0 0.0 0.0 0.0 0.1 0.3 0.1 0.1 0.1 0.0 0.0 0.0 0.0 0.0 0.0 0.1 0.0 0.0
2.4 0.7 1.0 3.7 0.1 0.0 0.0 0.0 0.0 0.0 0.0 0.0 0.0 0.0 0.0 0.0 0.0 0.0 0.0 0.0 0.0 0.0 0.0 0.0 0.0 0.0 0.0 0.0 0.0 0.0 0.0 1.2 0.8 0.3 2.8 0.4 0.0 0.1 0.1 0.3 0.2 0.2 0.3 0.2
7.8 2.2 12.3 0.6 0.0 0.0 0.0 0.0 0.0 0.0 0.0 0.0 0.0 0.0 0.0 0.0 0.0 0.0 0.0 0.0 0.0 0.0 0.0 0.0 0.0 0.0 0.0 0.0 0.0 0.0 0.0 0.0 0.4 0.4 2.6 6.2 2.0 2.9 3.8 1.5 2.5 1.7 2.1 2.3
12.3 4.4 1.3 0.0 0.0 0.0 0.0 0.1 0.0 0.0 0.0 0.0 0.0 0.0 0.0 0.0 0.0 0.0 0.0 0.0 0.0 0.0 0.0 0.0 0.0 0.0 0.0 0.0 0.0 0.0 0.0 0.0 0.0 0.3 1.7 3.5 6.3 8.0 6.3 5.5 5.4 5.2 2.6 3.2
10.1 6.5 4.9 0.0 0.0 0.0 0.0 0.8 0.0 0.0 0.0 0.0 0.0 0.1 0.1 0.0 0.0 0.0 0.0 0.0 0.0 0.0 0.0 0.0 0.0 0.0 0.0 0.0 0.0 0.0 0.0 0.0 0.0 0.0 0.1 0.7 2.3 5.3 5.3 2.7 5.0 4.0 5.0 3.5
7.3 6.0 1.5 0.0 0.0 0.0 1.5 0.2 0.0 0.0 0.0 0.0 0.1 0.0 0.0 0.0 0.0 0.0 0.0 0.1 0.0 0.0 0.0 0.0 0.0 0.0 0.1 0.5 0.4 0.1 0.1 0.0 0.0 0.0 0.1 0.5 1.8 2.8 2.7 2.7 2.8 3.2 3.5 3.9
4.7 9.4 6.0 0.0 0.0 0.3 0.4 0.0 0.0 0.0 0.0 0.0 0.0 0.0 0.0 0.0 0.0 0.0 0.0 0.0 0.2 0.1 0.2 0.2 0.2 0.1 0.4 0.5 2.6 1.9 0.9 0.7 0.6 0.3 0.4 1.2 2.4 2.7 2.8 3.3 3.3 2.6 2.7 3.7
0.8 2.4 0.0 0.0 0.0 0.0 0.0 0.0 0.0 0.0 0.0 0.0 0.0 0.0 0.0 0.0 0.0 0.0 0.0 0.0 0.0 0.2 0.5 0.6 0.2 0.2 1.5 1.9 2.0 2.2 2.9 3.3 2.7 2.2 2.9 2.7 3.7 5.1 5.2 3.7 3.9 2.8 2.9 3.2
0.2 0.0 0.0 0.0 0.0 0.0 0.0 0.0 0.0 0.0 0.0 0.0 0.0 0.0 0.0 0.0 0.0 0.0 0.0 0.0 0.0 0.0 0.1 0.9 1.2 0.3 0.5 1.9 1.7 2.0 2.6 2.9 3.4 4.7 3.5 4.1 3.7 4.1 4.2 5.5 6.0 4.1 3.6 4.8
0.0 0.0 0.0 0.0 0.0 0.0 0.0 0.0 0.0 0.0 0.0 0.0 0.0 0.0 0.0 0.0 0.0 0.0 0.0 0.0 0.0 0.0 0.0 0.2 0.4 0.9 1.6 1.7 1.5 1.9 1.2 3.0 3.4 3.1 2.5 4.8 5.0 4.5 3.8 3.8 3.2 4.0 4.0 3.4
0.7 0.0 0.0 0.0 0.0 0.0 0.0 0.0 0.0 0.0 0.0 0.0 0.0 0.0 0.0 0.0 0.0 0.0 0.0 0.0 0.0 0.0 0.0 0.0 0.0 0.1 0.2 0.3 0.9 2.0 2.8 3.1 4.2 5.3 4.4 4.3 5.4 7.3 nan nan nan nan nan 3.3
0.0 0.0 0.0 0.0 0.0 0.0 0.0 0.0 0.0 0.0 0.0 0.0 0.0 0.0 0.0 0.0 0.0 nan 0.0 0.0 0.0 0.0 0.0 0.0 0.1 0.1 0.0 0.1 0.0 0.2 0.7 1.2 4.0 4.2 6.1 5.9 6.2 6.4 8.0 10.4 nan nan nan nan
0.0 0.0 0.0 0.0 0.0 0.0 0.0 0.0 0.0 0.0 0.0 0.0 0.0 0.0 0.0 0.0 0.0 0.0 0.0 0.0 0.0 0.0 0.0 0.0 0.1 0.2 0.1 0.0 0.1 0.2 0.3 0.3 1.4 2.0 2.9 4.1 6.0 4.9 4.3 6.2 7.8 8.7 nan nan
0.0 0.0 0.0 0.0 0.0 0.0 0.0 0.0 0.0 0.0 0.0 0.0 0.1 0.2 0.0 0.0 0.0 0.0 0.0 0.0 0.0 0.0 0.0 0.0 0.0 0.1 0.0 0.1 0.2 0.3 0.5 1.1 1.5 2.4 2.8 3.0 2.9 3.2 4.6 5.3 5.9 6.9 6.5 4.1
0.0 0.0 0.0 0.0 0.0 0.0 0.0 0.0 0.0 0.0 0.1 0.0 0.0 0.0 0.0 0.0 0.0 0.0 0.0 0.0 0.1 0.2 0.0 1.5 0.1 0.2 0.2 0.1 0.2 0.3 1.3 1.0 1.5 2.4 2.6 2.9 2.8 2.9 3.2 3.5 4.1 4.5 4.8 5.7
0.0 0.0 0.0 0.0 0.0 0.0 0.0 0.0 0.1 0.1 0.1 0.1 0.0 0.0 0.0 0.1 0.0 0.1 0.0 0.0 0.3 0.5 0.2 0.3 2.0 2.4 2.7 1.6 0.3 1.0 1.1 1.3 0.0 1.9 2.0 1.7 1.8 2.2 2.0 2.6 3.0 3.1 5.2 7.6
0.0 0.0 0.0 0.1 0.0 0.0 0.0 0.1 0.3 0.1 0.2 0.2 0.3 1.5 2.9 2.5 0.5 0.9 1.4 0.9 2.4 3.5 2.5 2.3 2.6 3.0 2.9 0.9 0.3 0.6 0.9 1.0 1.0 1.3 1.1 2.0 1.5 1.2 1.8 1.9 1.9 2.5 4.0 11.4
0.0 0.5 0.1 0.1 0.1 0.2 0.4 0.1 0.1 0.3 2.2 2.6 2.7 2.7 2.6 3.8 3.0 3.9 4.5 7.2 8.0 3.5 5.2 3.6 0.0 0.2 0.2 0.2 0.1 0.6 0.9 1.6 0.9 0.7 0.8 4.0 2.9 1.4 2.6 3.1 2.9 4.8 4.0 4.9
0.4 0.4 0.8 0.3 0.1 0.1 0.2 1.4 1.4 1.8 2.2 1.6 3.9 5.1 4.1 6.9 6.8 7.4 4.4 3.0 1.8 2.2 1.0 0.4 0.7 0.3 0.7 0.1 0.4 0.3 1.0 1.7 1.1 2.4 3.6 1.9 5.3 8.4 5.3 5.8 3.5 5.6 11.1 8.6
0.1 0.2 0.9 1.9 4.0 3.5 4.1 4.4 4.5 4.9 4.5 5.3 5.4 7.6 7.3 4.8 4.6 5.7 2.8 1.4 1.3 0.8 0.2 0.0 0.3 0.6 0.5 0.7 1.2 2.7 2.8 4.9 4.9 3.3 5.6 7.5 11.0 7.3 8.2 9.3 8.6 11.2 14.3 10.7
0.3 1.2 2.8 2.7 3.2 2.6 4.1 3.2 1.7 4.6 4.9 6.7 9.4 10.2 7.4 3.0 3.8 3.3 4.2 1.2 1.2 0.9 1.0 0.9 0.6 1.4 1.4 3.4 1.0 4.6 3.6 2.7 3.3 3.4 4.3 7.5 8.8 14.1 14.2 11.9 12.5 13.5 13.3 13.8
0.5 0.5 1.2 2.7 2.2 1.5 1.9 2.5 5.3 3.9 7.6 7.0 8.1 4.9 2.9 2.1 1.6 2.2 2.8 0.7 1.5 2.7 1.6 2.4 3.6 4.0 4.4 4.6 4.5 5.7 6.2 7.2 7.5 7.0 7.4 11.9 11.9 18.5 10.5 10.8 12.0 12.3 16.9 11.8
0.5 0.5 0.8 1.4 1.2 0.3 0.5 0.6 0.2 0.3 5.6 1.1 2.7 4.8 0.3 3.1 4.6 1.3 1.4 4.3 4.4 10.3 6.0 6.4 6.1 5.0 5.1 7.3 7.9 9.3 8.4 9.4 10.5 11.8 6.3 7.9 15.6 12.6 10.2 16.1 10.7 12.2 14.5 12.8
0.3 0.4 0.4 0.3 0.2 0.8 0.1 0.1 0.2 0.2 0.1 0.2 0.2 0.2 0.2 0.6 3.0 2.4 2.8 3.1 4.9 3.1 4.5 6.6 5.6 6.1 10.5 11.2 11.0 11.2 11.8 10.1 11.9 13.8 10.0 14.7 13.5 19.4 16.6 12.9 16.3 16.4 18.1 16.5
0.0 0.4 0.3 0.0 0.2 0.2 0.3 0.3 0.7 0.6 0.6 3.3 2.1 7.4 4.9 2.0 1.7 1.9 2.9 4.6 2.5 4.8 3.9 11.5 13.8 12.7 11.7 7.6 10.0 10.9 8.3 7.2 9.3 10.0 11.9 12.0 11.6 9.4 12.6 11.5 16.3 20.9 26.7 28.9
0.3 0.1 0.3 0.3 0.3 0.3 0.4 0.4 1.3 2.3 3.0 4.1 5.4 5.4 3.3 5.2 6.7 4.3 5.9 6.8 7.7 9.0 11.2 13.9 10.9 8.5 6.9 10.9 10.2 9.0 9.3 10.1 9.3 6.8 15.4 18.7 18.4 24.9 24.1 23.6 26.9 28.3 26.1 23.4
Water_Equivalent
0.03 0.00 0.00 0.00 0.00 0.00 0.00 0.00 0.46 0.01 0.00 0.00 0.00 0.00 0.00 0.00 0.00 0.00 0.00 0.00 0.00 0.00 0.00 0.00 0.00 0.00 0.00 0.00 0.00 0.02 0.01 0.02 0.03 0.01 0.01 0.00 0.00 0.00 0.00 0.00 0.00 0.00 0.00 0.00
0.90 0.03 0.03 0.04 0.00 0.00 0.00 0.00 0.00 0.00 0.00 0.00 0.00 0.00 0.00 0.00 0.00 0.00 0.00 0.00 0.00 0.00 0.00 0.00 0.00 0.00 0.00 0.00 0.00 0.00 0.02 0.10 0.03 0.02 0.03 0.02 0.01 0.00 0.00 0.00 0.01 0.04 0.01 0.01
0.37 0.13 0.18 0.57 0.01 0.00 0.00 0.00 0.00 0.00 0.00 0.00 0.00 0.00 0.00 0.00 0.00 0.00 0.00 0.00 0.00 0.00 0.00 0.00 0.00 0.00 0.00 0.00 0.00 0.00 0.01 0.48 0.32 0.10 1.12 0.15 0.01 0.02 0.05 0.13 0.07 0.06 0.09 0.07
1.22 0.35 1.47 0.10 0.00 0.00 0.00 0.00 0.00 0.00 0.00 0.00 0.00 0.00 0.00 0.00 0.00 0.00 0.00 0.00 0.00 0.00 0.00 0.00 0.00 0.00 0.00 0.00 0.00 0.00 0.00 0.00 0.15 0.13 1.05 2.47 0.80 1.08 1.37 0.54 0.86 0.54 0.62 0.68
1.79 0.63 0.22 0.00 0.00 0.00 0.01 0.01 0.00 0.00 0.00 0.00 0.00 0.00 0.00 0.00 0.00 0.00 0.00 0.00 0.00 0.00 0.00 0.00 0.00 0.00 0.00 0.00 0.00 0.00 0.00 0.00 0.00 0.09 0.62 1.20 2.17 2.68 2.04 1.87 1.78 1.65 0.76 0.88
1.43 0.76 0.62 0.00 0.00 0.00 0.00 0.23 0.00 0.00 0.00 0.00 0.00 0.03 0.04 0.00 0.00 0.00 0.00 0.00 0.00 0.00 0.00 0.00 0.00 0.00 0.00 0.00 0.00 0.00 0.00 0.00 0.00 0.00 0.02 0.19 0.55 1.45 1.57 0.66 1.38 1.10 1.37 1.01
1.02 0.79 0.21 0.00 0.00 0.00 0.30 0.04 0.00 0.00 0.00 0.00 0.04 0.00 0.00 0.00 0.00 0.00 0.00 0.02 0.00 0.00 0.00 0.00 0.01 0.00 0.03 0.18 0.16 0.04 0.03 0.00 0.00 0.00 0.02 0.13 0.41 0.61 0.60 0.54 0.52 0.59 0.66 0.80
0.70 1.28 0.64 0.00 0.00 0.05 0.08 0.00 0.00 0.00 0.00 0.00 0.00 0.00 0.00 0.00 0.00 0.00 0.00 0.00 0.07 0.04 0.08 0.05 0.07 0.06 0.14 0.17 1.03 0.75 0.33 0.25 0.20 0.10 0.16 0.33 0.56 0.63 0.67 0.66 0.56 0.42 0.41 0.61
0.17 0.46 0.00 0.00 0.00 0.00 0.00 0.00 0.00 0.00 0.00 0.00 0.00 0.00 0.00 0.00 0.00 0.00 0.00 0.00 0.00 0.06 0.17 0.15 0.06 0.09 0.49 0.61 0.76 0.80 1.05 1.06 0.87 0.81 0.94 0.79 0.95 1.10 1.11 0.74 0.74 0.45 0.54 0.61
0.03 0.00 0.00 0.00 0.00 0.00 0.00 0.00 0.00 0.00 0.00 0.00 0.00 0.00 0.00 0.00 0.00 0.00 0.00 0.00 0.00 0.00 0.04 0.24 0.34 0.10 0.16 0.58 0.47 0.71 0.77 0.83 1.01 1.37 0.97 1.12 1.00 1.11 1.07 1.19 1.20 0.86 0.71 0.91
0.01 0.00 0.00 0.00 0.00 0.00 0.00 0.00 0.00 0.00 0.00 0.00 0.00 0.00 0.00 0.00 0.00 0.00 0.00 0.00 0.00 0.00 0.00 0.05 0.09 0.21 0.39 0.48 0.41 0.61 0.31 0.87 0.87 0.79 0.56 1.01 1.05 0.99 0.88 0.88 0.68 0.77 0.78 0.68
0.16 0.00 0.00 0.00 0.00 0.00 0.00 0.00 0.00 0.00 0.00 0.00 0.00 0.00 0.00 0.00 0.00 0.00 0.00 0.00 0.00 0.00 0.00 0.00 0.01 0.01 0.05 0.08 0.20 0.54 0.87 0.83 1.11 1.42 1.01 0.89 0.99 1.30 nan nan nan nan nan 0.71
0.01 0.00 0.00 0.00 0.00 0.00 0.00 0.00 0.00 0.00 0.00 0.00 0.00 0.00 0.00 0.00 0.00 nan 0.00 0.00 0.00 0.00 0.00 0.01 0.01 0.02 0.01 0.01 0.00 0.05 0.14 0.23 0.99 1.06 1.33 1.06 1.09 1.05 1.22 1.82 nan nan nan nan
0.00 0.00 0.01 0.00 0.02 0.00 0.00 0.00 0.00 0.00 0.00 0.00 0.00 0.00 0.00 0.00 0.00 0.00 0.00 0.00 0.00 0.00 0.00 0.00 0.02 0.05 0.03 0.00 0.03 0.05 0.06 0.12 0.32 0.42 0.57 0.82 1.08 0.91 0.84 1.13 1.35 1.36 nan nan
0.00 0.00 0.00 0.00 0.00 0.00 0.00 0.00 0.00 0.00 0.00 0.00 0.02 0.04 0.00 0.00 0.00 0.00 0.00 0.00 0.00 0.00 0.00 0.00 0.01 0.04 0.01 0.03 0.05 0.07 0.13 0.27 0.36 0.59 0.70 0.71 0.70 0.72 0.91 1.05 1.11 1.18 1.11 0.86
0.00 0.00 0.00 0.00 0.00 0.00 0.00 0.00 0.00 0.00 0.02 0.00 0.00 0.00 0.00 0.00 0.00 0.00 0.00 0.00 0.03 0.05 0.00 0.38 0.03 0.05 0.05 0.04 0.04 0.08 0.33 0.31 0.40 0.61 0.65 0.71 0.67 0.65 0.66 0.72 0.80 0.82 0.80 0.89
0.00 0.01 0.00 0.00 0.00 0.00 0.00 0.00 0.02 0.03 0.02 0.02 0.00 0.00 0.00 0.02 0.01 0.03 0.01 0.01 0.08 0.12 0.05 0.06 0.40 0.52 0.60 0.39 0.08 0.25 0.28 0.35 0.00 0.45 0.46 0.40 0.42 0.51 0.43 0.54 0.58 0.56 0.91 1.44
0.00 0.00 0.00 0.01 0.00 0.00 0.01 0.03 0.06 0.02 0.04 0.03 0.09 0.37 0.67 0.55 0.09 0.16 0.26 0.19 0.50 0.70 0.47 0.45 0.49 0.56 0.56 0.19 0.06 0.15 0.22 0.26 0.26 0.33 0.28 0.47 0.34 0.29 0.40 0.42 0.41 0.50 0.75 2.50
0.00 0.13 0.03 0.02 0.02 0.05 0.07 0.03 0.02 0.07 0.52 0.58 0.70 0.63 0.60 0.88 0.64 0.81 0.91 1.58 1.75 0.66 0.96 0.70 0.00 0.05 0.04 0.04 0.04 0.16 0.24 0.45 0.24 0.18 0.21 1.29 0.68 0.32 0.56 0.69 0.62 1.03 0.73 0.79
0.09 0.08 0.18 0.06 0.02 0.03 0.05 0.33 0.34 0.40 0.50 0.37 1.03 1.24 0.82 1.44 1.47 1.60 0.89 0.57 0.31 0.46 0.19 0.08 0.14 0.07 0.17 0.02 0.12 0.10 0.29 0.50 0.32 0.62 0.88 0.44 1.19 1.89 1.14 1.87 0.74 1.17 2.26 1.65
0.02 0.07 0.24 0.46 0.96 0.88 1.04 1.11 1.02 1.03 0.92 1.19 1.25 1.66 1.52 0.96 0.96 1.26 0.56 0.29 0.22 0.15 0.04 0.00 0.07 0.13 0.12 0.14 0.26 0.72 0.73 1.29 1.25 0.77 1.33 1.79 2.49 1.63 1.85 2.15 1.96 2.47 2.95 2.14
0.08 0.28 0.65 0.61 0.72 0.54 0.90 0.70 0.35 0.90 0.94 1.33 1.97 2.22 1.56 0.54 0.75 0.66 0.91 0.26 0.26 0.31 0.23 0.22 0.14 0.46 0.43 1.11 0.25 1.18 0.87 0.66 0.81 0.82 1.00 1.74 1.91 2.94 2.97 2.54 2.50 2.92 2.89 3.00
0.12 0.13 0.27 0.58 0.48 0.32 0.38 0.50 1.09 0.84 1.46 1.36 1.62 0.99 0.62 0.45 0.37 0.50 0.57 0.13 0.33 0.82 0.34 0.57 1.15 1.31 1.45 1.28 1.21 1.49 1.57 1.75 1.79 1.62 1.69 2.65 2.50 3.99 2.10 2.11 2.43 2.45 3.51 2.31
0.13 0.11 0.18 0.32 0.27 0.07 0.10 0.12 0.04 0.07 1.04 0.22 0.57 1.05 0.08 0.73 1.20 0.29 0.32 1.41 1.45 3.20 1.60 1.68 1.74 1.64 1.68 1.97 2.00 2.28 2.02 2.26 2.39 2.61 1.27 2.50 3.49 2.60 2.00 3.09 1.83 2.39 2.71 2.39
0.08 0.08 0.09 0.07 0.04 0.20 0.03 0.02 0.04 0.04 0.03 0.05 0.03 0.04 0.04 0.15 0.80 0.56 0.78 0.82 1.58 0.90 1.18 2.05 1.85 2.03 2.71 2.80 2.55 2.52 2.56 2.13 2.47 2.88 1.96 3.06 2.80 4.11 3.42 2.43 2.92 3.07 3.13 2.82
0.01 0.12 0.10 0.00 0.05 0.08 0.09 0.09 0.19 0.17 0.15 0.70 0.44 1.73 1.29 0.56 0.45 0.49 0.76 1.37 0.59 1.54 0.89 2.57 3.32 3.15 2.88 1.68 2.26 2.38 1.73 1.36 1.83 1.83 2.15 2.14 2.11 1.68 2.12 1.93 2.72 3.54 4.49 5.00
0.09 0.03 0.09 0.08 0.08 0.10 0.12 0.12 0.34 0.55 0.84 1.04 1.10 1.18 0.74 1.21 1.52 1.18 1.82 1.60 1.77 1.82 2.36 2.99 2.47 2.43 1.47 2.43 2.06 1.74 1.63 1.73 2.65 1.12 2.47 2.95 2.76 3.90 3.46 3.54 4.10 4.59 3.87 3.23
SL_Ratio
4.5 nan nan nan nan nan 3.6 4.2 4.7 3.9 nan nan nan nan nan nan nan nan nan nan nan nan nan nan nan nan nan nan 2.5 2.6 2.7 2.5 2.6 2.8 3.0 0.0 nan nan nan nan nan nan nan nan
3.6 4.9 4.8 4.5 nan nan nan nan nan nan nan nan nan nan nan nan nan nan nan nan nan nan nan nan nan nan nan nan nan 3.3 2.9 2.8 2.7 2.5 2.5 2.6 2.5 nan nan nan 2.1 2.6 2.8 2.6
6.5 5.3 5.4 6.5 5.3 nan nan nan nan nan nan nan nan nan nan nan nan nan nan nan nan nan nan nan nan nan nan nan nan nan 2.8 2.5 2.5 2.6 2.5 2.6 2.6 2.6 2.6 2.5 2.5 2.9 2.9 2.8
6.4 6.2 8.3 5.4 nan nan nan nan nan nan nan nan nan nan nan nan nan nan nan nan nan nan nan nan nan nan nan nan nan nan nan 2.3 2.6 2.9 2.5 2.5 2.5 2.7 2.8 2.8 2.9 3.2 3.4 3.4
6.9 6.9 5.8 4.3 nan nan 4.1 5.1 nan nan nan nan nan nan nan nan nan nan nan nan nan nan nan nan nan nan nan nan nan nan nan nan nan 2.7 2.8 2.9 2.9 3.0 3.1 3.0 3.1 3.2 3.4 3.6
7.1 8.5 7.9 6.7 nan nan nan 3.6 nan nan nan nan nan 3.6 2.6 nan nan nan nan nan nan nan nan nan nan nan 3.3 3.3 nan nan nan nan nan nan 2.5 3.5 4.2 3.7 3.4 4.0 3.6 3.6 3.7 3.4
7.1 7.6 6.8 4.0 nan nan 5.2 4.7 nan nan nan nan 2.6 nan nan nan nan nan nan 2.5 nan 2.5 nan 2.7 2.5 2.5 2.8 2.5 2.8 2.7 2.5 nan 1.8 0.0 2.7 3.6 4.5 4.6 4.4 5.0 5.4 5.5 5.4 4.9
6.8 7.3 9.3 0.0 nan 5.5 4.5 nan nan nan nan nan nan 2.9 0.0 nan nan nan nan 3.3 2.5 3.0 3.0 3.0 2.6 2.5 2.5 2.8 2.5 2.5 2.8 2.9 2.8 2.8 2.8 3.6 4.3 4.3 4.1 5.0 5.9 6.2 6.5 6.1
4.7 5.2 nan 4.0 nan nan nan nan nan nan nan nan 5.0 nan nan nan nan nan nan nan nan 3.0 3.1 3.7 3.5 2.6 3.0 3.2 2.6 2.7 2.8 3.1 3.1 2.7 3.0 3.4 3.9 4.6 4.7 5.0 5.2 6.2 5.4 5.2
4.8 5.0 nan nan nan nan nan nan nan nan nan nan nan nan nan nan nan nan nan nan nan nan 3.6 3.7 3.6 3.6 3.5 3.2 3.6 2.8 3.4 3.5 3.4 3.5 3.6 3.6 3.6 3.7 3.9 4.6 5.0 4.8 5.1 5.3
5.6 3.3 nan nan nan nan nan nan nan nan nan nan nan nan nan nan nan nan nan nan nan nan nan 3.9 4.2 4.2 4.0 3.6 3.5 3.1 3.7 3.5 3.9 4.0 4.5 4.7 4.8 4.5 4.3 4.3 4.7 5.2 5.2 5.1
4.1 5.0 nan nan nan nan nan nan nan nan nan nan nan nan nan nan nan nan nan nan nan nan nan 3.6 4.3 4.4 4.2 3.9 4.3 3.8 3.2 3.8 3.8 3.7 4.3 4.8 5.5 5.6 nan nan nan nan nan 4.7
2.6 nan nan nan nan nan nan nan nan nan nan nan nan nan nan nan nan nan nan nan nan nan nan 4.2 4.9 4.9 5.0 4.2 5.0 4.4 5.1 5.1 4.0 4.0 4.5 5.6 5.7 6.1 6.6 5.7 nan nan nan nan
nan 0.0 3.7 nan 2.5 nan nan nan nan nan nan nan nan nan nan nan nan nan nan nan nan nan nan 2.5 3.8 4.3 4.4 3.6 3.8 4.6 5.0 3.0 4.3 4.7 5.1 5.1 5.5 5.3 5.1 5.5 5.7 6.4 nan nan
nan nan nan nan nan nan nan nan nan nan nan nan 2.6 3.8 3.3 nan nan nan nan nan nan nan nan nan 3.2 3.8 3.9 3.8 4.2 4.8 4.0 4.1 4.0 4.0 4.0 4.1 4.2 4.5 5.0 5.0 5.3 5.8 5.9 4.8
nan nan nan nan nan nan nan nan nan 3.6 4.2 nan nan nan nan nan nan nan nan nan 3.0 3.3 4.0 4.1 4.4 4.5 4.0 4.0 4.2 4.4 3.8 3.2 3.8 4.0 4.0 4.1 4.2 4.4 4.7 4.9 5.2 5.5 6.0 6.4
5.0 6.3 nan nan nan nan nan 3.3 3.7 3.9 4.3 4.4 nan nan 5.0 4.0 3.5 4.2 3.4 3.1 3.9 4.0 4.6 4.8 5.0 4.5 4.5 4.0 4.1 3.8 4.0 3.9 3.1 4.2 4.3 4.2 4.2 4.3 4.6 4.8 5.2 5.7 5.8 5.3
nan 0.0 nan 3.6 nan 4.0 4.7 4.4 4.4 4.6 4.8 4.6 3.8 3.9 4.3 4.5 4.9 5.4 5.2 4.7 4.8 4.9 5.2 5.2 5.3 5.4 5.2 4.7 4.7 4.0 3.8 4.0 4.0 3.9 4.0 4.2 4.3 4.2 4.4 4.5 4.7 4.9 5.3 4.6
5.0 4.0 4.3 4.0 4.6 4.7 4.9 4.8 4.3 4.1 4.2 4.4 3.8 4.3 4.3 4.3 4.7 4.8 5.0 4.5 4.6 5.3 5.4 5.2 3.3 5.2 4.8 5.1 3.3 3.8 3.8 3.5 3.6 3.9 3.8 3.1 4.3 4.2 4.6 4.4 4.6 4.7 5.4 6.2
4.7 4.8 4.7 4.8 4.6 4.1 4.7 4.1 4.0 4.5 4.3 4.3 3.8 4.1 5.0 4.8 4.6 4.6 5.0 5.3 5.6 4.8 5.5 5.2 4.8 4.7 4.1 3.8 3.0 3.5 3.3 3.4 3.5 3.9 4.1 4.4 4.5 4.5 4.7 3.1 4.7 4.7 4.9 5.2
3.8 3.6 3.9 4.2 4.2 4.0 4.0 4.0 4.4 4.8 4.9 4.4 4.4 4.6 4.8 5.0 4.8 4.5 5.0 4.7 5.9 5.6 5.0 4.0 4.1 4.2 4.5 4.7 4.6 3.8 3.8 3.8 4.0 4.3 4.2 4.2 4.4 4.5 4.5 4.3 4.4 4.5 4.8 5.0
3.6 4.3 4.2 4.4 4.4 4.8 4.5 4.6 4.7 5.1 5.3 5.1 4.8 4.6 4.7 5.6 5.0 5.1 4.6 4.5 4.6 3.0 4.1 4.1 4.1 3.1 3.2 3.0 4.1 3.9 4.1 4.1 4.1 4.2 4.3 4.3 4.6 4.8 4.8 4.7 5.0 4.6 4.6 4.6
3.8 4.1 4.4 4.7 4.6 4.9 4.9 4.9 4.9 4.7 5.2 5.2 5.0 4.9 4.6 4.7 4.4 4.4 4.9 5.3 4.5 3.3 4.6 4.3 3.1 3.0 3.0 3.6 3.7 3.8 3.9 4.1 4.2 4.3 4.4 4.5 4.7 4.6 5.0 5.1 4.9 5.0 4.8 5.1
4.1 4.2 4.5 4.5 4.5 4.8 5.3 5.1 5.0 4.9 5.4 5.1 4.8 4.5 4.3 4.2 3.9 4.5 4.4 3.0 3.0 3.2 3.8 3.8 3.5 3.0 3.0 3.7 3.9 4.1 4.1 4.2 4.4 4.5 5.0 3.1 4.5 4.8 5.1 5.2 5.8 5.1 5.4 5.3
4.4 4.5 4.6 4.7 4.6 3.9 4.3 4.5 4.4 4.4 4.4 4.4 5.6 4.8 5.0 3.9 3.8 4.3 3.6 3.8 3.1 3.4 3.9 3.2 3.0 3.0 3.9 4.0 4.3 4.4 4.6 4.7 4.8 4.8 5.1 4.8 4.8 4.7 4.9 5.3 5.6 5.3 5.8 5.8
4.0 3.5 3.5 3.3 3.2 3.1 3.3 3.6 3.5 3.8 3.7 4.7 4.6 4.3 3.8 3.5 3.7 3.9 3.8 3.3 4.2 3.1 4.5 4.5 4.2 4.0 4.0 4.5 4.4 4.6 4.8 5.3 5.1 5.4 5.6 5.6 5.5 5.6 5.9 6.0 6.0 5.9 6.0 5.8
3.3 3.2 3.3 3.4 3.3 3.3 3.3 3.3 3.8 4.1 3.6 4.0 4.9 4.6 4.4 4.3 4.4 3.7 3.2 4.2 4.4 4.9 4.8 4.7 4.4 3.5 4.7 4.5 5.0 5.2 5.7 5.8 3.5 6.1 6.3 6.4 6.7 6.4 7.0 6.7 6.6 6.2 6.7 7.2